This is the latest recevied weather packets stored in our database for station/object OK1LPD-5. If no packets are shown the sender has not sent any weather packets the latest 10 day(s).
| Time | Temp. | Humidity | Pressure | Rain* | Wind** | Luminosity | Snow |
|---|---|---|---|---|---|---|---|
| 1777416014 | 7.78° C | 54% | 1020.1 hPa | 0 mm | - | - | - |
| 1777415411 | 7.78° C | 54% | 1020 hPa | 0 mm | - | - | - |
| 1777414812 | 8.33° C | 55% | 1020 hPa | 0 mm | - | - | - |
| 1777414213 | 8.33° C | 55% | 1019.8 hPa | 0 mm | - | - | - |
| 1777413611 | 8.89° C | 55% | 1019.5 hPa | 0 mm | - | - | - |
| 1777413012 | 8.89° C | 56% | 1019.6 hPa | 0 mm | - | - | - |
| 1777412413 | 9.44° C | 57% | 1019.2 hPa | 0 mm | - | - | - |
| 1777411809 | 9.44° C | 58% | 1019.2 hPa | 0 mm | - | - | - |
| 1777411214 | 9.44° C | 59% | 1019.1 hPa | 0 mm | - | - | - |
| 1777410612 | 10° C | 59% | 1018.9 hPa | 0 mm | - | - | - |
| 1777410011 | 10° C | 60% | 1018.6 hPa | 0 mm | - | - | - |
| 1777409411 | 10° C | 59% | 1018.5 hPa | 0 mm | - | - | - |
| 1777408810 | 10.56° C | 60% | 1018.6 hPa | 0 mm | - | - | - |
| 1777408209 | 10.56° C | 59% | 1018.3 hPa | 0 mm | - | - | - |
| 1777407611 | 11.11° C | 59% | 1018 hPa | 0 mm | - | - | - |
| 1777407010 | 11.11° C | 59% | 1017.9 hPa | 0 mm | - | - | - |
| 1777406410 | 11.67° C | 57% | 1017.6 hPa | 0 mm | - | - | - |
| 1777405811 | 11.67° C | 57% | 1017.5 hPa | 0 mm | - | - | - |
| 1777405209 | 11.67° C | 56% | 1017.3 hPa | 0 mm | - | - | - |
| 1777404609 | 12.22° C | 55% | 1017.1 hPa | 0 mm | - | - | - |
| 1777404013 | 12.22° C | 54% | 1017 hPa | 0 mm | - | - | - |
| 1777403409 | 12.78° C | 53% | 1016.8 hPa | 0 mm | - | - | - |
| 1777402811 | 12.78° C | 51% | 1016.6 hPa | 0 mm | - | - | - |
| 1777402211 | 13.33° C | 50% | 1016.5 hPa | 0 mm | - | - | - |
| 1777401609 | 12.78° C | 48% | 1016.1 hPa | 0 mm | - | - | - |
* Rain latest hour (hover to see other rain measurements)
** Current wind speed in m/s (hover to see current wind gust speed)